FW4610 Weather Reports


time (UTC)temp
C
wind
direction
speed
KPH
gust
KPH
rain 1hr
cm
rain 24hr
cm
rain mn
cm
humidity
%
barometer
mb
20260507070333 6 185 0.0 8.0 0.00 0.46 0.00 94 1006.9
20260507065328 6 210 3.2 16.1 0.00 0.46 0.00 94 1006.9
20260507064324 6 195 3.2 8.0 0.00 0.46 0.00 94 1006.9
20260507063323 6 210 0.0 8.0 0.00 0.46 0.00 94 1006.9
20260507062320 6 253 1.6 8.0 0.00 0.46 0.00 94 1006.9
20260507061313 6 176 0.0 8.0 0.00 0.46 0.00 93 1006.9
20260507060308 6 252 6.4 12.9 0.00 0.46 0.00 93 1007.2
20260507055306 6 267 3.2 12.9 0.00 0.46 0.00 93 1007.2
20260507054301 6 292 0.0 8.0 0.00 0.46 0.00 93 1007.2
20260507053259 6 225 3.2 8.0 0.00 0.46 0.00 93 1007.2
20260507052253 6 234 0.0 8.0 0.00 0.46 0.00 94 1007.6
20260507051249 6 218 0.0 8.0 0.00 0.46 0.00 94 1007.6
20260507050747 6 217 1.6 8.0 0.00 0.46 0.00 94 1007.6
20260507045743 6 189 3.2 8.0 0.00 0.46 0.00 94 1007.9
20260507044238 6 179 1.6 8.0 0.00 0.46 0.00 95 1008.3
20260507043236 6 132 0.0 12.9 0.00 0.46 0.00 95 1008.3
20260507042231 6 229 0.0 8.0 0.00 0.46 0.00 95 1008.3
20260507041228 6 149 1.6 3.2 0.00 0.46 0.00 95 1008.3
20260507040227 6 196 0.0 8.0 0.00 0.46 0.00 95 1008.3
20260507035221 6 228 0.0 8.0 0.00 0.46 0.46 95 1008.3
20260507034715 6 215 1.6 8.0 0.00 0.46 0.46 95 1008.6
20260507033713 5 173 0.0 8.0 0.00 0.46 0.46 95 1008.6
20260507032206 5 227 3.2 8.0 0.00 0.46 0.46 96 1008.6
20260507031203 5 198 0.0 3.2 0.00 0.46 0.46 96 1008.6
20260507030158 5 230 0.0 3.2 0.00 0.46 0.46 96 1008.9
20260507025155 5 111 0.0 3.2 0.00 0.46 0.46 96 1008.6
20260507024151 5 169 0.0 3.2 0.00 0.46 0.46 96 1008.6
20260507023649 5 202 0.0 3.2 0.00 0.46 0.46 96 1008.9
20260507022143 5 198 0.0 0.0 0.00 0.46 0.46 95 1008.9
20260507021152 6 262 0.0 0.0 0.00 0.46 0.46 94 1008.9
20260507020148 6 191 0.0 0.0 0.00 0.46 0.46 93 1008.9
20260507015131 6 213 0.0 3.2 0.00 0.46 0.46 92 1008.9
20260507014629 7 183 1.6 3.2 0.00 0.46 0.46 91 1008.9
20260507013124 7 149 1.6 8.0 0.00 0.46 0.46 91 1009.3
20260507012121 7 238 1.6 8.0 0.00 0.46 0.46 90 1009.3
20260507011119 7 194 1.6 8.0 0.00 0.46 0.46 90 1009.3
20260507010113 7 202 3.2 12.9 0.00 0.46 0.46 90 1009.3
20260507005109 7 153 0.0 8.0 0.00 0.46 0.46 89 1008.9
20260507004104 7 196 1.6 12.9 0.00 0.46 0.46 89 1008.9
20260507003102 7 211 1.6 12.9 0.00 0.46 0.46 89 1008.9
20260507002057 7 254 1.6 12.9 0.00 0.46 0.46 89 1008.6
20260507001105 7 223 0.0 8.0 0.00 0.46 0.46 89 1008.6
20260507000601 7 203 1.6 8.0 0.00 0.46 0.46 89 1008.3
20260506235044 8 225 0.0 3.2 0.00 0.46 0.46 89 1008.3
20260506234541 8 154 1.6 8.0 0.00 0.46 0.46 88 1008.3
20260506233039 8 206 0.0 8.0 0.00 0.46 0.46 87 1008.3
20260506232035 8 180 1.6 8.0 0.00 0.46 0.46 86 1008.3
20260506231029 8 211 1.6 8.0 0.00 0.46 0.46 86 1008.3
20260506230031 8 199 0.0 8.0 0.00 0.46 0.46 86 1008.3
20260506225532 8 203 0.0 8.0 0.00 0.46 0.46 83 1008.3
20260506225025 8 222 0.0 8.0 0.00 0.46 0.46 85 1008.3
20260506223024 9 192 4.8 8.0 0.00 0.46 0.46 83 1008.3
20260506222009 9 249 4.8 12.9 0.00 0.46 0.46 83 1008.6
20260506221008 9 150 1.6 8.0 0.00 0.46 0.46 83 1008.6
20260506220000 10 149 3.2 8.0 0.00 0.46 0.46 83 1008.6
20260506215002 10 238 0.0 12.9 0.00 0.46 0.46 81 1008.3
20260506214958 10 181 4.8 12.9 0.00 0.46 0.46 82 1008.6
20260506212953 9 255 3.2 12.9 0.00 0.46 0.46 82 1008.6
20260506211945 8 210 3.2 12.9 0.00 0.46 0.46 84 1008.3
20260506210940 8 307 3.2 12.9 0.00 0.46 0.46 84 1008.3
20260506205935 8 241 0.0 8.0 0.00 0.46 0.46 85 1008.6
20260506204934 8 135 0.0 8.0 0.00 0.46 0.46 87 1008.6
20260506203928 8 237 0.0 8.0 0.00 0.46 0.46 87 1008.3
20260506203425 8 206 4.8 8.0 0.00 0.46 0.46 87 1008.6
20260506201921 8 253 3.2 12.9 0.00 0.46 0.46 86 1008.6
20260506200917 8 232 0.0 8.0 0.00 0.46 0.46 87 1008.9
20260506195912 8 215 0.0 12.9 0.00 0.46 0.46 87 1008.6
20260506194908 8 193 3.2 8.0 0.00 0.46 0.46 87 1008.9
20260506193917 8 160 1.6 8.0 0.00 0.46 0.46 87 1008.9
20260506192913 8 226 3.2 12.9 0.00 0.46 0.46 87 1008.9
20260506192357 8 225 1.6 8.0 0.00 0.46 0.46 88 1008.9
20260506190852 7 178 0.0 8.0 0.00 0.46 0.46 89 1008.9
20260506185847 7 295 1.6 8.0 0.00 0.46 0.46 89 1009.3
20260506185345 7 210 1.6 8.0 0.00 0.46 0.46 89 1008.9
20260506184341 7 194 1.6 8.0 0.00 0.46 0.46 89 1008.9
20260506182837 7 210 1.6 8.0 0.00 0.46 0.46 89 1009.3
20260506181831 8 175 1.6 8.0 0.00 0.46 0.46 88 1009.3
20260506180828 8 231 1.6 8.0 0.00 0.46 0.46 88 1008.9
20260506180325 8 165 4.8 12.9 0.00 0.46 0.46 88 1008.9
20260506174822 8 232 3.2 8.0 0.00 0.46 0.46 88 1008.9
20260506173814 7 246 3.2 8.0 0.00 0.46 0.46 90 1009.3
20260506172811 7 174 3.2 8.0 0.00 0.46 0.46 94 1009.3
20260506171807 7 235 1.6 16.1 0.00 0.46 0.46 96 1009.6
20260506170803 6 263 6.4 8.0 0.00 0.46 0.46 96 1009.6
20260506165800 6 154 3.2 8.0 0.00 0.46 0.46 96 1009.9
20260506164757 6 230 3.2 8.0 0.03 0.46 0.46 96 1009.9
20260506163751 6 250 1.6 8.0 0.03 0.46 0.46 96 1009.9
20260506162747 6 171 3.2 8.0 0.05 0.46 0.46 97 1009.9
20260506161745 6 208 0.0 8.0 0.05 0.46 0.46 98 1009.9
20260506161240 6 186 0.0 8.0 0.05 0.46 0.46 98 1010.3
20260506155735 6 226 3.2 8.0 0.05 0.46 0.46 99 1010.3
20260506154731 5 228 1.6 8.0 0.05 0.43 0.43 99 1010.6
20260506153727 5 240 0.0 12.9 0.05 0.43 0.43 99 1010.6
20260506152725 5 235 4.8 12.9 0.05 0.38 0.38 99 1010.6
20260506151720 5 224 3.2 16.1 0.05 0.38 0.38 99 1010.6
20260506150719 5 198 9.7 12.9 0.05 0.38 0.38 99 1010.6
20260506145710 5 211 3.2 12.9 0.10 0.38 0.38 99 1010.6
20260506144710 5 234 8.0 16.1 0.10 0.36 0.36 99 1010.6
20260506143701 5 222 0.0 12.9 0.13 0.36 0.36 99 1010.3
20260506142658 5 186 4.8 12.9 0.13 0.33 0.33 99 1009.9
20260506141654 5 207 3.2 12.9 0.15 0.33 0.33 99 1009.9
20260506140650 5 187 3.2 16.1 0.18 0.30 0.33 99 1010.3
20260506135645 5 239 1.6 12.9 0.18 0.30 0.30 99 1010.3
20260506134643 5 229 1.6 8.0 0.18 0.28 0.28 99 1010.3
20260506133639 5 195 0.0 12.9 0.15 0.23 0.23 98 1010.6
20260506132636 5 210 1.6 12.9 0.13 0.20 0.20 98 1010.3
20260506131631 6 214 0.0 8.0 0.10 0.18 0.18 98 1009.9
20260506130627 6 223 8.0 12.9 0.03 0.13 0.13 97 1010.3
20260506125621 6 211 8.0 12.9 0.03 0.13 0.13 96 1009.9
20260506124622 6 276 8.0 16.1 0.00 0.10 0.10 96 1010.3
20260506123615 6 174 6.4 12.9 0.00 0.10 0.10 97 1009.9
20260506122612 6 199 3.2 12.9 0.00 0.10 0.10 97 1009.9
20260506121611 6 216 3.2 12.9 0.05 0.10 0.10 96 1009.9
20260506121607 6 228 1.6 8.0 0.03 0.10 0.10 96 1009.9
20260506120100 5 223 6.4 12.9 0.05 0.10 0.10 96 1009.9
20260506114556 6 140 1.6 12.9 0.05 0.10 0.10 97 1009.9
20260506113604 6 211 6.4 12.9 0.05 0.10 0.10 97 1009.9
20260506112548 6 212 6.4 16.1 0.05 0.10 0.10 96 1010.3
20260506112045 6 225 4.8 12.9 0.05 0.05 0.05 95 1009.9
20260506110540 6 208 3.2 12.9 0.03 0.03 0.03 93 1009.9
20260506105534 6 215 3.2 12.9 0.03 0.03 0.03 93 1009.6
20260506104535 7 203 4.8 12.9 0.03 0.03 0.03 93 1009.9
20260506103528 7 204 3.2 12.9 0.03 0.03 0.03 91 1009.6
20260506102525 7 189 4.8 12.9 0.03 0.03 0.03 90 1009.6
20260506101525 7 214 4.8 12.9 0.00 0.00 0.00 90 1009.6
20260506100519 7 224 6.4 20.9 0.00 0.00 0.00 85 1009.6
20260506095511 7 180 3.2 12.9 0.00 0.00 0.00 89 1009.6
20260506094508 7 200 6.4 16.1 0.00 0.00 0.00 92 1009.3
20260506093507 8 48 0.0 3.2 0.00 0.00 0.00 93 1009.3
20260506093503 8 244 9.7 16.1 0.00 0.00 0.00 92 1009.6
20260506091458 8 223 3.2 12.9 0.00 0.00 0.00 92 1009.3
20260506090453 8 273 3.2 12.9 0.00 0.00 0.00 91 1009.3
20260506085449 8 225 0.0 8.0 0.00 0.00 0.00 91 1008.9
20260506084445 8 181 1.6 8.0 0.00 0.00 0.00 90 1008.9
20260506083440 8 200 0.0 16.1 0.00 0.00 0.00 90 1008.9
20260506082439 8 234 0.0 8.0 0.00 0.00 0.00 90 1009.6
20260506081432 8 227 0.0 12.9 0.00 0.00 0.00 90 1009.6
20260506080431 8 180 0.0 8.0 0.00 0.00 0.00 91 1009.3
20260506073419 8 215 11.3 16.1 0.00 0.00 0.00 91 1009.3
20260506072413 8 125 4.8 12.9 0.00 0.00 0.00 91 1008.9
20260506071409 9 231 0.0 12.9 0.00 0.00 0.00 91 1008.9